星链-5609 (STARLINK-5609 )

导读

STARLINK-5609是美国SpaceX星链计划中的卫星,于2023年1月26日发射升空,隶属于美国太空探索技术公司打造的星链星座网络。星链系统旨在为全球提供覆盖广泛的低延迟互联网服务,该卫星入轨后承担全球通信网络覆盖任务,拓展星链星座的服务能力与覆盖范围,助力全球高速互联网接入布局。

Basic Information
目录编号:
55348
目录名称:
STARLINK-5609
国际标识:
2023-013T
轨道中心:
EARTH
卫星名称:
星链-5609
卫星全名:
星链-5609 (STARLINK-5609 )
卫星状态:
在轨 (已飞行1325 天)
发射日期:
2023-01-26 UTC
国别 :
美国 (US)
星等 :
--
This satellite is enrolled in the Space Conjunction Data Service (SCDS) and the current flight risk assessment level is: High Risk
Orbit Information
数据来源 国际轨道数据
星历时间: 2026-09-12T13:23:06+0800
8小时前
查看轨道信息
半长轴: 6861.194km
偏心率: 0.0001309
轨道倾角: 43.002°
近地点辐角 267.137°
升交点赤经 329.772°
平近点角 92.933°
近地点: 482.158km
远地点: 483.956km
周期: 94.267分钟
每日圈数: 15.275776
Detailed Information
固有亮度:
5
最大亮度:
2.5
卫星平台:
Starlink v1.5
覆盖范围:
全球
运营商:
太空探索技术公司
运营商所在国:
美国
制造商(研发单位):
太空探索技术公司
制造商所在国:
美国
使用方式:
暂无
Satellite Introduction
星链(Starlink)计划是由太空探索技术公司(SpaceX)提出的一个巨型低轨卫星互联网星座项目,计划在2019年至2024年间在太空搭建由约1.2万颗卫星组成的“星链”网络,其中1584颗将部署在地球上空550千米处的近地轨道,并从2020年开始工作。该卫星仍在工作。
2D Orbit Map
3D Orbit Map
Orbit Altitude Analysis Chart
Orbit Inclination Analysis Chart
Orbit Comprehensive Analysis Chart
View Comprehensive Chart
Conjunction Data List
Event ID Objects TCA Miss Dist (km) Collision Risk Probability Collision Risk Index (CRI) Action
CDM_260914-103105-534805-843722
2026-09-14T
10:31:25+0000
0.261 km
中距离
4.72596E-4 高风险 0.88
CDM_260915-012505-534805-843721
2026-09-15T
01:25:52+0000
0.686 km
远距离
5.974117E-5 中风险 0.71
CDM_260914-085705-534805-843721
2026-09-14T
08:57:15+0000
1.559 km
极远距离
3.877668E-6 低风险 0.47
CDM_260913-100505-534805-870122
2026-09-13T
10:05:48+0000
2.349 km
极远距离
1.816818E-6 低风险 0.4
CDM_260914-120505-534805-843722
2026-09-14T
12:05:34+0000
2.062 km
极远距离
1.79096E-6 低风险 0.4
CDM_260915-030005-534805-843721
2026-09-15T
03:00:01+0000
2.212 km
极远距离
1.532754E-6 低风险 0.39
CDM_260914-235105-534805-843721
2026-09-14T
23:51:43+0000
2.315 km
极远距离
1.395898E-6 低风险 0.38
Miss Distance Evolution Trend with All Objects
Collision Probability Evolution Trend with All Objects